Previsão horária em Aathal

Hoje, 30 Setembro, Quarta-feira

Tempo Temperatura Precipitação Vento Pressão Humidade
00:00 +8°C° 0 mm 0 m/s 715 mmHg 95%
01:00 +8°C° 0 mm 0 m/s 715 mmHg 95%
02:00 +8°C° 0 mm 0 m/s 714 mmHg 95%
03:00 +8°C° 0 mm 0 m/s 714 mmHg 95%
04:00 +8°C° 0 mm 0 m/s 713 mmHg 95%
05:00 +8°C° 0 mm 0 m/s 714 mmHg 95%
06:00 +8°C° 0 mm 0 m/s 714 mmHg 95%
07:00 +8°C° 0 mm 0 m/s 714 mmHg 95%
08:00 +10°C° 0 mm 0 m/s 714 mmHg 91%
09:00 +12°C° 0 mm 0 m/s 713 mmHg 87%
10:00 +13°C° 0 mm 0 m/s 713 mmHg 82%
11:00 +16°C° 0 mm 1 m/s 713 mmHg 76%
12:00 +18°C° 0 mm 1 m/s 713 mmHg 70%
13:00 +20°C° 0 mm 1 m/s 713 mmHg 64%
14:00 +20°C° 0 mm 1 m/s 712 mmHg 65%
15:00 +20°C° 0 mm 1 m/s 712 mmHg 67%
16:00 +20°C° 0 mm 1 m/s 712 mmHg 68%
17:00 +16°C° 0 mm 1 m/s 711 mmHg 76%
18:00 +14°C° 0 mm 1 m/s 711 mmHg 84%
19:00 +11°C° 0 mm 0 m/s 711 mmHg 91%
20:00 +11°C° 0 mm 0 m/s 711 mmHg 92%
21:00 +12°C° 0 mm 1 m/s 710 mmHg 92%
22:00 +11°C° 0 mm 1 m/s 710 mmHg 93%
23:00 +11°C° 0 mm 1 m/s 710 mmHg 92%

Amanhã, 1 Outubro, Quinta-feira

Tempo Temperatura Precipitação Vento Pressão Humidade
00:00 +11°C° 0 mm 1 m/s 710 mmHg 92%
01:00 +10°C° 0 mm 1 m/s 709 mmHg 91%
02:00 +10°C° 0 mm 1 m/s 709 mmHg 91%
03:00 +10°C° 0 mm 1 m/s 708 mmHg 91%
04:00 +9°C° 0 mm 0 m/s 708 mmHg 90%
05:00 +9°C° 0 mm 0 m/s 708 mmHg 90%
06:00 +10°C° 0 mm 1 m/s 708 mmHg 90%
07:00 +11°C° 0 mm 1 m/s 708 mmHg 89%
08:00 +12°C° 0 mm 0 m/s 707 mmHg 83%
09:00 +13°C° 0 mm 0 m/s 707 mmHg 77%
10:00 +15°C° 0 mm 0 m/s 707 mmHg 71%
11:00 +19°C° 0 mm 1 m/s 707 mmHg 66%
12:00 +20°C° 0 mm 1 m/s 707 mmHg 61%
13:00 +20°C° 0 mm 2 m/s 707 mmHg 56%
14:00 +19°C° 0 mm 2 m/s 707 mmHg 62%
15:00 +18°C° 0 mm 2 m/s 707 mmHg 67%
16:00 +17°C° 0 mm 2 m/s 706 mmHg 73%
17:00 +16°C° 0.1 mm 2 m/s 706 mmHg 78%
18:00 +14°C° 0.1 mm 1 m/s 706 mmHg 83%
19:00 +13°C° 0.1 mm 1 m/s 706 mmHg 88%
20:00 +13°C° 0.1 mm 1 m/s 706 mmHg 89%
21:00 +13°C° 0.1 mm 1 m/s 706 mmHg 90%
22:00 +12°C° 0.1 mm 1 m/s 706 mmHg 91%
23:00 +12°C° 0.2 mm 1 m/s 706 mmHg 93%

Depois de amanhã, 2 Outubro, Sexta-feira

Tempo Temperatura Precipitação Vento Pressão Humidade
00:00 +12°C° 0.2 mm 1 m/s 705 mmHg 94%
01:00 +12°C° 0.2 mm 1 m/s 705 mmHg 95%
02:00 +12°C° 0.1 mm 1 m/s 704 mmHg 95%
03:00 +12°C° 0.1 mm 1 m/s 703 mmHg 94%
04:00 +12°C° 0.1 mm 1 m/s 703 mmHg 94%
05:00 +12°C° 0 mm 1 m/s 702 mmHg 94%
06:00 +11°C° 0 mm 1 m/s 702 mmHg 94%
07:00 +11°C° 0 mm 1 m/s 701 mmHg 94%
08:00 +12°C° 0 mm 2 m/s 701 mmHg 91%
09:00 +14°C° 0 mm 2 m/s 700 mmHg 87%
10:00 +15°C° 0 mm 2 m/s 700 mmHg 83%
11:00 +16°C° 0 mm 2 m/s 700 mmHg 77%
12:00 +17°C° 0 mm 3 m/s 699 mmHg 71%
13:00 +19°C° 0 mm 3 m/s 699 mmHg 65%
14:00 +18°C° 0 mm 2 m/s 698 mmHg 67%
15:00 +18°C° 0 mm 2 m/s 698 mmHg 69%
16:00 +18°C° 0 mm 2 m/s 698 mmHg 71%
17:00 +17°C° 0.1 mm 2 m/s 697 mmHg 74%
18:00 +15°C° 0.1 mm 2 m/s 697 mmHg 77%
19:00 +14°C° 0.1 mm 2 m/s 697 mmHg 80%
20:00 +14°C° 0 mm 2 m/s 697 mmHg 80%
21:00 +13°C° 0 mm 2 m/s 697 mmHg 80%
22:00 +13°C° 0 mm 2 m/s 696 mmHg 81%
23:00 +13°C° 0.1 mm 2 m/s 696 mmHg 82%

3 Outubro, Sábado

Tempo Temperatura Precipitação Vento Pressão Humidade
00:00 +12°C° 0.1 mm 2 m/s 696 mmHg 83%
01:00 +12°C° 0.1 mm 2 m/s 695 mmHg 84%
02:00 +12°C° 0.1 mm 2 m/s 695 mmHg 85%
03:00 +12°C° 0.1 mm 2 m/s 695 mmHg 86%
04:00 +10°C° 0.1 mm 2 m/s 695 mmHg 87%
05:00 +10°C° 0.4 mm 2 m/s 695 mmHg 89%
06:00 +10°C° 0.4 mm 2 m/s 695 mmHg 91%
07:00 +10°C° 0.4 mm 2 m/s 696 mmHg 93%
08:00 +9°C° 1.1 mm 3 m/s 696 mmHg 92%
09:00 +9°C° 1.1 mm 3 m/s 697 mmHg 91%
10:00 +8°C° 1.1 mm 4 m/s 697 mmHg 90%
11:00 +8°C° 4.3 mm 3 m/s 698 mmHg 92%
12:00 +7°C° 4.3 mm 2 m/s 698 mmHg 93%
13:00 +7°C° 4.3 mm 2 m/s 699 mmHg 94%
14:00 +7°C° 1 mm 2 m/s 699 mmHg 94%
15:00 +7°C° 1 mm 2 m/s 699 mmHg 93%
16:00 +8°C° 1 mm 2 m/s 700 mmHg 92%
17:00 +8°C° 0.1 mm 1 m/s 700 mmHg 92%
18:00 +8°C° 0.1 mm 1 m/s 700 mmHg 93%
19:00 +7°C° 0.1 mm 1 m/s 700 mmHg 94%
20:00 +7°C° 0 mm 1 m/s 700 mmHg 94%
21:00 +6°C° 0 mm 1 m/s 699 mmHg 94%
22:00 +5°C° 0 mm 2 m/s 699 mmHg 94%
23:00 +5°C° 0 mm 2 m/s 699 mmHg 93%

4 Outubro, Domingo

Tempo Temperatura Precipitação Vento Pressão Humidade
00:00 +5°C° 0 mm 2 m/s 699 mmHg 93%
01:00 +5°C° 0 mm 2 m/s 699 mmHg 93%
02:00 +5°C° 0 mm 2 m/s 699 mmHg 93%
03:00 +5°C° 0 mm 2 m/s 699 mmHg 92%
04:00 +5°C° 0 mm 2 m/s 700 mmHg 92%
05:00 +7°C° 0 mm 1 m/s 700 mmHg 92%
06:00 +7°C° 0 mm 1 m/s 700 mmHg 91%
07:00 +7°C° 0 mm 1 m/s 701 mmHg 91%
08:00 +9°C° 0 mm 1 m/s 701 mmHg 87%
09:00 +10°C° 0 mm 1 m/s 702 mmHg 82%
10:00 +12°C° 0 mm 1 m/s 702 mmHg 78%
11:00 +13°C° 0 mm 1 m/s 702 mmHg 74%
12:00 +14°C° 0 mm 1 m/s 702 mmHg 69%
13:00 +15°C° 0 mm 2 m/s 703 mmHg 64%
14:00 +15°C° 0.1 mm 2 m/s 703 mmHg 67%
15:00 +14°C° 0.1 mm 2 m/s 702 mmHg 70%
16:00 +14°C° 0.1 mm 2 m/s 702 mmHg 73%
17:00 +12°C° 0 mm 2 m/s 702 mmHg 78%
18:00 +11°C° 0 mm 1 m/s 703 mmHg 83%
19:00 +10°C° 0 mm 1 m/s 703 mmHg 88%
20:00 +10°C° 0.4 mm 1 m/s 703 mmHg 90%
21:00 +10°C° 0.4 mm 1 m/s 703 mmHg 91%
22:00 +9°C° 0.4 mm 2 m/s 703 mmHg 93%
23:00 +8°C° 1.3 mm 2 m/s 703 mmHg 94%

5 Outubro, Segunda-feira

Tempo Temperatura Precipitação Vento Pressão Humidade
00:00 +8°C° 1.3 mm 2 m/s 703 mmHg 95%
01:00 +8°C° 1.3 mm 2 m/s 703 mmHg 96%
02:00 +7°C° 0.9 mm 2 m/s 702 mmHg 96%
03:00 +7°C° 0.9 mm 2 m/s 702 mmHg 96%
04:00 +7°C° 0.9 mm 2 m/s 702 mmHg 96%
05:00 +8°C° 0.6 mm 1 m/s 703 mmHg 95%
06:00 +8°C° 0.6 mm 1 m/s 703 mmHg 95%
07:00 +8°C° 0.6 mm 1 m/s 703 mmHg 95%
08:00 +9°C° 0 mm 1 m/s 703 mmHg 92%
09:00 +10°C° 0 mm 1 m/s 704 mmHg 89%
10:00 +11°C° 0 mm 1 m/s 704 mmHg 85%
11:00 +12°C° 0.1 mm 1 m/s 704 mmHg 79%
12:00 +13°C° 0.1 mm 1 m/s 704 mmHg 72%
13:00 +14°C° 0.1 mm 1 m/s 704 mmHg 65%
14:00 +14°C° 0.1 mm 1 m/s 703 mmHg 66%
15:00 +14°C° 0.1 mm 1 m/s 703 mmHg 67%
16:00 +14°C° 0.1 mm 1 m/s 703 mmHg 67%
17:00 +12°C° 0.2 mm 1 m/s 703 mmHg 74%
18:00 +11°C° 0.2 mm 1 m/s 703 mmHg 80%
19:00 +9°C° 0.2 mm 1 m/s 703 mmHg 86%
20:00 +9°C° 0.1 mm 1 m/s 703 mmHg 87%
21:00 +9°C° 0.1 mm 1 m/s 703 mmHg 87%
22:00 +9°C° 0.1 mm 1 m/s 703 mmHg 88%
23:00 +8°C° 0 mm 1 m/s 703 mmHg 89%
Mostrar mais